www.pogodaiklimat.ru

Погода и климат >> Архив погоды >> Норвегия >> Тромсё аэропорт


ПОГОДА в Тромсё аэропорту

  • Прогноз погоды в Тромсё аэропорту
  • Монитор погоды в Тромсё аэропорту

АРХИВ ПОГОДЫ в Тромсё аэропорту

Время (UTC), дата Ветер
(напр.,м/с)
 
Видим.   Явления Облачность Т
(С)
Тd
(С)
f
(%)
Тe
(С)
Тes
(С)
Комфортность P
(гПа)
Po
(гПа)
Тmin
(С)
Tmax
(С)
R
(мм)
R24
(мм)
S
(см)
10 12.07 СВ 4
{6}
29 км ясно +12.4 +7.1 70 +11 +17 1014.6 1013.4
11 12.07 СВ 4
{6}
30 км ясно +13.2 +7.7 69 +12 +18 1014.5 1013.3
12 12.07 С 5
{7}
35 км ясно +13.9 +7.9 67 +12 +17 1014.2 1013.1
13 12.07 С 5
{7}
30 км ясно +14.7 +8.7 67 +13 +18 1014.2 1013.0
14 12.07 СВ 5
{7}
40 км ясно +14.7 +8.2 65 +13 +17 1014.3 1013.1
15 12.07 СВ 6
{7}
35 км ясно +13.8 +7.8 67 +12 +14 1014.2 1013.1
16 12.07 С 6
{8}
45 км ясно +13.5 +7.7 68 +11 +13 1014.1 1012.9
17 12.07 С 5
{7}
30 км ясно +13.2 +7.9 70 +11 +12 1014.1 1012.9
18 12.07 СВ 4
{8}
35 км ясно +13.3 +7.5 68 +12 +13 1014.1 1012.9 +8.4 +14.9
19 12.07
{9}
35 км ясно +11.5 +7.4 76 1014.3 1013.2
20 12.07 С 7
{8}
30 км ясно +10.5 +7.4 81 +7 +7 1014.6 1013.4
21 12.07 С 5
{7}
40 км ясно +9.7 +7.0 83 +6 +6 1014.8 1013.6
22 12.07 С 5
{7}
40 км ясно +9.0 +6.8 86 +6 +6 1015.0 1013.8
23 12.07 С 4
{7}
45 км ясно +8.7 +6.7 87 +6 +6 1015.1 1013.9
00 13.07 В 3
{9}
35 км ясно +8.7 +6.7 87 +6 +6 1015.1 1013.9
01 13.07 СВ 3
{5}
35 км ясно +8.7 +6.2 84 +6 +6 1015.2 1014.0
02 13.07 СВ 4
{6}
30 км ясно +8.8 +6.6 86 +6 +6 1015.3 1014.1
03 13.07 СВ 3
{5}
28 км ясно +9.4 +6.7 83 +7 +8 1015.2 1014.0
04 13.07 СВ 4
{6}
30 км ясно +9.7 +7.0 83 +7 +8 1015.2 1014.0
05 13.07 СВ 3
{5}
26 км ясно +10.1 +6.8 80 +8 +10 1015.1 1014.0
06 13.07 С 4
{6}
30 км 10/0
[]
+11.3 +7.2 76 +9 +11 1015.1 1013.9 +8.5 +13.3
07 13.07 СВ 6
{7}
29 км ясно +11.9 +7.0 72 +9 +12 1015.0 1013.8
08 13.07 С 5
{7}
30 км ясно +12.8 +7.1 68 +11 +15 1015.2 1014.0
09 13.07 СВ 6
{7}
28 км ясно +13.4 +7.6 68 +11 +15 1015.2 1014.0
10 13.07 С 7
{9}
26 км ясно +13.1 +8.4 73 +11 +13 1015.1 1014.0
11 13.07 С 6
{8}
30 км 6/0 2000 м
[]
+14.1 +8.5 69 +12 +15 1015.1 1013.9
12 13.07 СВ 6
{9}
29 км 4/0
[]
+14.3 +8.3 67 +12 +15 1014.9 1013.7
13 13.07 С 6
{9}
30 км ясно +15.0 +7.8 62 +13 +17 1014.9 1013.7
14 13.07 С 6
{8}
30 км ясно +14.6 +8.1 65 +13 +16 1015.0 1013.9
15 13.07 С 7
{9}
30 км ясно +14.5 +7.6 63 +13 +14 1015.3 1014.1
16 13.07 С 6
{8}
35 км ясно +13.8 +6.9 63 +12 +13 1015.5 1014.3
17 13.07 СВ 6
{8}
40 км ясно +12.8 +6.0 63 +11 +11 1015.7 1014.5
18 13.07 СВ 6
{9}
29 км ясно +11.8 +5.9 67 +9 +10 1015.9 1014.7 +11.2 +15.3
19 13.07 СВ 6
{8}
35 км ясно +10.4 +5.4 71 +7 +7 1016.2 1015.0
20 13.07 СВ 5
{9}
40 км 3/3 1000 м
[]
+9.5 +5.1 74 +6 +6 1016.4 1015.2
21 13.07 СВ 5
{8}
50 км 9/0
[]
+8.9 +5.1 77 +6 +6 1016.6 1015.4
22 13.07 СВ 5
{8}
45 км 10/10 600 м
[]
+8.9 +5.1 77 +6 +6 1016.7 1015.5
23 13.07 СВ 5
{8}
50 км 10/10 600 м
[]
+8.7 +5.1 78 +5 +5 1016.8 1015.6
00 14.07 СВ 5
{9}
50 км 10/10 600 м
[]
+8.5 +4.7 77 +5 +5 1016.9 1015.7
01 14.07 СВ 5
{8}
50 км 10/10 600 м
[]
+8.3 +4.5 77 +5 +5 1017.0 1015.8
02 14.07 СВ 5
{6}
50 км 10/10 300 м
[]
+8.3 +4.7 78 +5 +5 1016.9 1015.7
03 14.07 СВ 5
{7}
50 км 10/10 600 м
[]
+8.1 +4.7 79 +4 +4 1017.0 1015.8
04 14.07 СВ 5
{7}
50 км 10/10 600 м
[]
+8.1 +4.3 77 +4 +4 1017.1 1015.9
05 14.07 СВ 4
{8}
50 км 10/10 600 м
[]
+8.3 +4.0 74 +5 +5 1017.1 1015.9
06 14.07 СВ 5
{8}
50 км 10/10 300 м
[]
+8.4 +4.2 75 +5 +5 1017.1 1015.9 +8.0 +11.8
07 14.07 СВ 4
{9}
50 км 10/10 600 м
[]
+8.6 +4.2 74 +6 +6 1017.2 1016.0
08 14.07 СВ 4
{7}
50 км 10/10 600 м
[]
+9.1 +4.3 72 +6 +6 1017.2 1016.0
09 14.07 СВ 3
{8}
40 км 10/10 600 м
[]
+9.6 +4.4 70 +7 +7 1017.3 1016.1
10 14.07 С 4
{7}
45 км 10/10 1000 м
[]
+10.2 +3.9 65 +8 +8 1017.1 1015.9
11 14.07 С 6
{6}
40 км 10/10 1000 м
[]
+10.3 +4.2 66 +7 +7 1016.9 1015.7
12 14.07 С 5
{9}
40 км 10/10 1000 м
[]
+10.6 +4.3 65 +8 +8 1016.8 1015.6
13 14.07
{6}
45 км 10/10 1000 м
[]
+10.7 +4.6 66 1016.8 1015.6
14 14.07 СВ 4
{7}
40 км 10/10 1000 м
[]
+10.7 +4.2 64 +8 +8 1016.6 1015.4
15 14.07 СВ 5
{6}
40 км 10/10 1000 м
[]
+10.8 +4.1 63 +8 +8 1016.4 1015.2
16 14.07 С 4
{6}
45 км 10/10 1000 м
[]
+10.5 +4.2 65 +8 +8 1016.5 1015.3
17 14.07 С 5
{6}
50 км 10/10 1000 м
[]
+10.3 +4.2 66 +8 +8 1016.4 1015.2
18 14.07 С 5
{7}
50 км 10/10 1000 м
[]
+9.6 +5.0 73 +7 +7 1016.2 1015.0 +8.4 +11.0
19 14.07 С 3
{6}
50 км 10/10 1000 м
[]
+9.3 +4.5 72 +7 +7 1015.9 1014.7
20 14.07 С 3
{5}
50 км 10/10 1000 м
[]
+8.9 +4.1 72 +7 +7 1015.7 1014.5
21 14.07 С 5
{6}
50 км 10/10 1000 м
[]
+8.4 +5.3 81 +5 +5 1015.7 1014.5
22 14.07 С 5
{6}
50 км 10/0
[]
+7.7 +5.0 83 +4 +4 1015.6 1014.4
23 14.07 С 5
{6}
50 км 10/0
[]
+7.4 +4.7 83 +3 +3 1015.3 1014.1
00 15.07 С 2
{6}
50 км 10/0
[]
+7.1 +4.1 81 +5 +5 1015.2 1014.0
01 15.07 СВ 2
{3}
50 км 10/0
[]
+7.0 +4.2 82 +5 +5 1015.2 1014.0
02 15.07 СВ 2
{3}
50 км 10/0
[]
+6.9 +4.6 85 +5 +5 1015.1 1013.9
03 15.07 С 3
{4}
45 км 10/0
[]
+7.2 +5.0 86 +4 +5 1015.0 1013.8
04 15.07 СВ 3
{4}
50 км 10/0
[]
+7.8 +4.9 82 +5 +6 1015.1 1013.9
05 15.07 С 3
{5}
50 км 10/0
[]
+8.5 +4.2 74 +6 +7 1015.1 1013.9
06 15.07 СВ 3
{5}
45 км 10/0
[]
+9.1 +2.2 62 +7 +9 1014.8 1013.6 +6.8 +9.6
07 15.07 СВ 3
{5}
40 км 6/0
[]
+9.7 +1.6 57 +8 +11 1014.6 1013.4
08 15.07 СВ 1
{5}
45 км 10/10 1000 м
[]
+10.7 +3.7 62 +11 +11 1014.7 1013.5
09 15.07 С 3
{4}
50 км 10/10 1000 м
[]
+11.0 +3.8 61 +9 +9 1014.8 1013.6
10 15.07 С 3
{5}
50 км 10/10 1000 м
[]
+10.8 +4.5 65 +9 +9 1014.8 1013.6
11 15.07 СВ 4
{8}
50 км 10/10 1000 м
[]
+10.4 +5.0 69 +8 +8 1014.7 1013.5
12 15.07 СВ 4
{8}
45 км 10/10 1000 м
[]
+10.5 +5.5 71 +8 +8 1014.9 1013.7
13 15.07 СВ 3
{6}
50 км 10/10 1000 м
[]
+10.7 +5.3 69 +9 +9 1015.1 1013.9
14 15.07 СВ 5
{6}
40 км 10/10 1000 м
[]
+10.6 +5.6 71 +8 +8 1015.1 1014.0
15 15.07 СВ 5
{7}
45 км 10/10 1000 м
[]
+10.4 +5.8 73 +8 +8 1015.1 1013.9
16 15.07 СВ 4
{7}
50 км 10/10 1500 м
[]
+10.3 +5.7 73 +8 +8 1015.1 1013.9
17 15.07 СВ 4
{6}
50 км 10/10 1000 м
[]
+10.4 +5.8 73 +8 +8 1015.3 1014.1
18 15.07 С 4
{7}
50 км 10/10 1000 м
[]
+10.2 +5.6 73 +8 +8 1015.5 1014.3 +9.1 +11.2
19 15.07 С 4
{6}
50 км 10/10 600 м
[]
+9.5 +5.7 77 +7 +7 1015.6 1014.4
20 15.07 С 4
{5}
50 км 10/10 1000 м
[]
+9.0 +5.6 79 +6 +6 1015.8 1014.6
21 15.07 С 4
{5}
50 км 10/10 1500 м
[]
+8.6 +5.4 80 +6 +6 1016.1 1014.9
22 15.07 С 4
{6}
50 км 10/10 1500 м
[]
+8.1 +5.2 82 +5 +5 1016.1 1014.9
23 15.07 С 4
{5}
50 км 10/10 600 м
[]
+7.9 +5.0 82 +5 +5 1016.3 1015.1
00 16.07 С 3
{6}
50 км 10/10 600 м
[]
+7.8 +5.3 84 +5 +5 1016.4 1015.2
01 16.07 С 4
{4}
50 км 10/10 600 м
[]
+7.7 +5.0 83 +4 +4 1016.5 1015.3
02 16.07 С 3
{4}
50 км 10/10 600 м
[]
+7.9 +5.2 83 +5 +5 1016.7 1015.5
03 16.07 С 4
{5}
50 км 10/10 600 м
[]
+8.0 +5.1 82 +5 +5 1016.8 1015.6
04 16.07 С 4
{5}
50 км 10/10 600 м
[]
+8.1 +5.1 81 +5 +5 1016.9 1015.7
05 16.07 С 4
{5}
50 км 10/10 600 м
[]
+8.4 +5.0 79 +5 +5 1017.0 1015.8
06 16.07 СВ 4
{6}
45 км 10/10 600 м
[]
+8.9 +4.5 74 +6 +6 1017.1 1015.9 +7.7 +10.2
07 16.07 С 4
{7}
50 км 10/10 600 м
[]
+9.2 +4.8 74 +6 +6 1017.1 1015.9
08 16.07 С 3
{5}
45 км 10/10 1000 м
[]
+9.8 +4.6 70 +8 +8 1017.0 1015.8
09 16.07 С 2
{4}
45 км 10/10 1000 м
[]
+10.1 +4.7 69 +9 +9 1017.0 1015.8
10 16.07 З 2
{3}
45 км 10/10 1000 м
[]
+10.4 +4.8 68 +9 +9 1017.0 1015.9
11 16.07 З 2
{3}
50 км 10/10 1500 м
[]
+10.9 +5.2 68 +10 +10 1017.0 1015.8
12 16.07 СВ 3
{7}
35 км 10/10 1500 м
[]
+11.2 +5.3 67 +10 +10 1017.2 1016.0
13 16.07 СВ 5
{7}
45 км 10/10 1500 м
[]
+11.0 +5.6 69 +8 +8 1017.1 1015.9
14 16.07 С 4
{6}
45 км 10/10 1500 м
[]
+11.4 +5.5 67 +9 +9 1017.1 1016.0
15 16.07 СВ 4
{6}
50 км 10/10 1500 м
[]
+11.3 +5.8 69 +9 +9 1017.3 1016.1
16 16.07 СВ 5
{7}
50 км 10/10 1500 м
[]
+11.0 +6.2 72 +8 +8 1017.3 1016.1
17 16.07 СВ 4
{6}
45 км 10/10 1000 м
[]
+11.0 +5.6 69 +9 +9 1017.3 1016.1
18 16.07 СВ 4
{7}
45 км 10/10 1500 м
[]
+10.5 +5.7 72 +8 +8 1017.4 1016.2 +8.8 +11.7
19 16.07 С 4
{6}
50 км 10/10 1500 м
[]
+9.7 +5.7 76 +7 +7 1017.3 1016.1
20 16.07 С 5
{6}
50 км 10/0
[]
+9.1 +5.5 78 +6 +6 1017.4 1016.2
21 16.07 С 4
{6}
50 км 9/0 2000 м
[]
+8.4 +5.5 82 +5 +5 1017.4 1016.2
22 16.07
{6}
50 км 10/0 2000 м
[]
+8.4 +5.3 81 1017.5 1016.3
23 16.07 С 4
{5}
50 км 10/0 2000 м
[]
+7.9 +5.0 82 +5 +5 1017.4 1016.2
00 17.07 С 5
{6}
50 км 9/9 1500 м
[]
+7.9 +5.4 84 +4 +4 1017.4 1016.2
01 17.07
{6}
50 км слаб. дождь 10/10 1000 м
[]
+8.1 +5.4 83 1017.4 1016.2
02 17.07 С 4
{5}
50 км в посл. час дождь 10/10 1000 м
[]
+7.9 +5.5 85 +5 +5 1017.2 1016.0
03 17.07 С 4
{5}
45 км ливневой дождь 10/10 1500 м
[]
+8.2 +5.1 81 +5 +5 1016.9 1015.7
04 17.07 СВ 4
{5}
45 км слаб. ливневой дождь 10/10 1500 м
[]
+8.7 +5.5 80 +6 +6 1016.9 1015.7
05 17.07 С 5
{6}
50 км 10/10 1000 м
[]
+8.7 +5.3 79 +5 +5 1016.7 1015.5
06 17.07 С 5
{6}
45 км 10/0 2000 м
[]
+9.2 +5.4 77 +6 +7 1016.3 1015.1 +7.6 +10.5 0.0
07 17.07 СВ 4
{6}
40 км 10/10 600 м
[]
+10.1 +5.5 73 +8 +8 1016.1 1014.9
08 17.07 СВ 3
{5}
40 км 10/10 600 м
[]
+10.5 +5.5 71 +9 +9 1015.9 1014.7
09 17.07 СВ 2
{5}
45 км 10/10 600 м
[]
+10.9 +5.7 70 +10 +10 1015.7 1014.5
10 17.07 С 2
{4}
45 км 10/10 600 м
[]
+11.3 +5.6 68 +10 +10 1015.6 1014.5
11 17.07 СВ 3
{5}
40 км 10/10 600 м
[]
+11.3 +5.6 68 +10 +10 1015.4 1014.3
12 17.07 З 4
{6}
35 км 10/10 600 м
[]
+11.2 +5.9 70 +9 +9 1015.2 1014.0
13 17.07 З 3
{6}
40 км 10/10 600 м
[]
+10.7 +5.7 71 +9 +9 1015.0 1013.8
14 17.07 З 3
{8}
16 км слаб. дождь н/о +10.3 +6.3 76 +8 +8 1015.0 1013.8
15 17.07 Ю 2
{5}
50 км в посл. час морось н/о +10.0 +5.8 75 +9 +9 1014.9 1013.7
16 17.07 ЮЗ 2
{6}
50 км 10/10 600 м
[]
+10.1 +5.3 72 +9 +9 1014.7 1013.5
17 17.07 Ю 2
{4}
50 км 10/10 600 м
[]
+9.8 +5.2 73 +8 +8 1014.6 1013.4
18 17.07 В 2
{8}
50 км 10/10 600 м
[]
+9.5 +4.3 70 +8 +8 1014.5 1013.3 +9.2 +11.6 0.0
19 17.07 ЮВ 2
{7}
50 км 10/10 600 м
[]
+9.1 +4.3 72 +8 +8 1014.6 1013.4
20 17.07 В 2
{6}
50 км 10/10 600 м
[]
+8.9 +4.3 73 +7 +7 1014.6 1013.4
21 17.07 В 2
{6}
50 км 10/10 600 м
[]
+8.8 +4.2 73 +7 +7 1014.5 1013.3
22 17.07 СВ 2
{5}
50 км 10/10 600 м
[]
+8.7 +4.2 73 +7 +7 1014.7 1013.5
23 17.07 СВ 1
{3}
50 км 10/10 600 м
[]
+8.5 +4.0 73 +8 +8 1014.7 1013.5
00 18.07 С 2
{7}
50 км 10/10 1000 м
[]
+8.0 +4.4 78 +6 +6 1014.7 1013.5
01 18.07 С 1
{2}
50 км 10/10 600 м
[]
+8.0 +4.2 77 +7 +7 1014.7 1013.5
02 18.07 В 1
{2}
50 км 10/10 600 м
[]
+8.2 +5.0 80 +8 +8 1014.7 1013.5
03 18.07 С 2
{2}
50 км 10/10 1000 м
[]
+8.1 +5.1 81 +6 +6 1014.8 1013.6
04 18.07 СВ 2
{2}
50 км 10/10 600 м
[]
+8.5 +4.3 75 +7 +7 1015.0 1013.8
05 18.07 СВ 3
{7}
50 км 10/10 600 м
[]
+9.0 +5.6 79 +7 +7 1014.8 1013.6
06 18.07 СВ 3
{7}
50 км 10/10 600 м
[]
+9.5 +5.5 76 +7 +7 1014.9 1013.7 +7.9 +9.5
07 18.07 С 3
{5}
45 км 10/10 600 м
[]
+10.5 +5.5 71 +9 +9 1014.8 1013.7
08 18.07 СВ 4
{5}
45 км 10/10 600 м
[]
+10.9 +5.7 70 +9 +9 1014.9 1013.7
09 18.07 С 3
{4}
35 км ясно +12.0 +6.3 68 +11 +18 1014.8 1013.7
10 18.07 С 3
{5}
40 км ясно +13.2 +7.2 67 +12 +20 1014.7 1013.6
11 18.07 С 3
{5}
35 км ясно +14.0 +7.1 63 +13 +21 1014.7 1013.6
12 18.07 СВ 5
{6}
35 км ясно +14.1 +6.9 62 +13 +17 1014.6 1013.4
13 18.07 СВ 5
{8}
40 км ясно +14.7 +7.5 62 +13 +17 1014.3 1013.2
14 18.07 СВ 6
{8}
45 км ясно +14.5 +7.6 63 +13 +15 1014.2 1013.0
15 18.07 С 6
{8}
35 км ясно +14.0 +7.1 63 +12 +14 1014.2 1013.0
16 18.07 С 9
{11}
35 км ясно +13.0 +7.3 68 +10 +10 1014.1 1012.9
17 18.07 С 8
{10}
45 км ясно +13.2 +7.4 68 +11 +11 1013.9 1012.7
18 18.07 С 8
{11}
35 км ясно +12.8 +7.3 69 +10 +10 1013.7 1012.6 +9.5 +14.8
19 18.07 С 6
{10}
50 км ясно +12.5 +7.2 70 +10 +10 1013.8 1012.7
20 18.07 СВ 5
{8}
45 км ясно +12.2 +7.3 72 +10 +10 1013.9 1012.7
21 18.07 СВ 4
{7}
50 км ясно +11.4 +7.3 76 +9 +9 1014.1 1012.9
22 18.07 В 2
{6}
50 км ясно +11.0 +7.3 78 +10 +10 1014.1 1012.9
23 18.07 Ю 1
{3}
40 км ясно +10.1 +7.0 81 +10 +10 1014.3 1013.1
00 19.07 С 1
{10}
45 км ясно +9.2 +7.0 86 +9 +9 1014.2 1013.0
01 19.07 В 1
{2}
50 км ясно +8.6 +6.6 87 +8 +8 1014.0 1012.8
02 19.07 В 1
{2}
40 км ясно +9.0 +7.0 87 +8 +9 1013.8 1012.6
03 19.07 ЮЗ 1
{2}
30 км ясно +9.6 +7.4 86 +9 +10 1013.6 1012.4
04 19.07 ЮЗ 1
{2}
35 км ясно +10.5 +7.7 83 +10 +12 1013.6 1012.4
05 19.07 ЮЗ 1
{2}
40 км ясно +11.0 +8.2 83 +11 +14 1013.4 1012.3
06 19.07 ЮЗ 1
{2}
35 км ясно +12.9 +9.0 77 +13 +18 1013.1 1011.9 +8.6 +13.1
07 19.07 З 1
{2}
35 км ясно +15.1 +9.7 70 +16 +23 1012.8 1011.6
08 19.07 З 2
{3}
40 км н/о +17.3 +7.7 53 +18 +18 1012.5 1011.4
09 19.07 З 2
{3}
40 км ясно +18.7 +7.8 49 +20 +28 1012.2 1011.1
10 19.07 З 2
{2}
40 км ясно +19.4 +7.2 45 +21 +30 комфорт 1012.0 1010.9

 

Местоположение метеостанции Тромсё аэропорт (Норвегия): широта 69.68 долгота 18.91 высота над уровнем моря 8 м.

В архиве по умолчанию представлена погода в Тромсё аэропорту за последнюю неделю. Архивные данные за месяц целиком и за предыдущие месяцы, начиная с января 2011 года, Вы можете получить, выбрав интересующий диапазон дат из раскрывающегося списка и нажав кнопку "Ввод!".


*Определитесь, кто Вы:
робот инопланетянин человек

Внимание! Время в таблицах - всемирное. Для получения местного времени необходимо прибавить поправку, которая равна 1 ч.

Смотрите также архив погоды в соседних городах и на ближайших метеорологических станциях:

Погода в Тромсё (Холт) (Норвегия) (3 км)
Погода в Тромсё (Норвегия) (4 км)
Погода на Маяке Hekkingen (Норвегия) (43 км)
Погода в Люнгене (Норвегия) (48 км)
Погода в Норднесфьеллете (Норвегия) (60 км)
Погода в Шиботне (Норвегия) (63 км)
Погода на Маяке Torsvag (Норвегия) (67 км)
Погода в Бардуфоссе (Норвегия) (70 км)
Погода в Сёрхьюсен аэропорту (Норвегия) (80 км)
Погода в Килписйарви (Финляндия) (102 км)

Пояснения к столбцам:

Ветер - указаны скорость ветра в м/с - средняя за 10 мин, порывы в срок и между сроками (в фигурных скобках) и направление, откуда дует ветер: С - северный, СВ - северо-восточный, В - восточный, ЮВ - юго-восточный, Ю - южный, ЮЗ - юго-западный, З - западный, СЗ - северо-западный.
Видимость - горизонтальная дальность видимости в метрах или километрах. При видимости от 1 до 10 км при отсутствии осадков обычно наблюдается дымка, при ухудшении видимости до 1 км и менее - туман. В сухую погоду видимость может ухудшаться дымом, пылью или мглою.
Явления - указаны атмосферные явления, наблюдавшиеся в срок или в последний час перед сроком; фигурными скобками обозначены явления, наблюдавшиеся между сроками (за 1-3 часа до срока); квадратными скобками обозначены град или гололедные отложения с указанием их диаметра в мм.
Облачность - указаны через наклонную черту общая и нижняя облачность в баллах и высота нижней границы облаков в метрах; квадратными скобками обозначены формы облаков: Ci - перистые, Cs - перисто-слоистые, Cc - перисто-кучевые, Ac - высококучевые, As - высокослоистые, Sc - слоисто-кучевые, Ns - слоисто-дождевые, Cu - кучевые, Cb - кучево-дождевые. Подробнее классификацию облаков см. в Атласе облаков (PDF).
T - Температура воздуха - температура, измеренная на высоте 2 м над землей.
Td - Температура точки росы - температура, при понижении до которой содержащийся в воздухе водяной пар достигнет насыщения.
f - Относительная влажность воздуха - влажноcть воздуха, измеренная на высоте 2 м над землей.
Te - Эффективная температура - температура, которую ощущает одетый по сезону человек в тени. Характеристика душности погоды. При расчете учитывается влияние влажности воздуха и скорости ветра на теплоощущения человека.
Tes - Эффективная температура на солнце - температура, которую ощущает человек, с поправкой на солнечный нагрев. Характеристика знойности погоды. Зависит от высоты солнца над горизонтом, облачности и скорости ветра. Ночью, в пасмурную погоду, а также при ветре 12 м/с и более поправка равна нулю.
P - Атмосферное давление - приведенное к уровню моря атмосферное давление.
Po - Атмосферное давление - измеренное на уровне метеостанции атмосферное давление.
Tmin - Минимальная температура - минимум температуры воздуха на высоте 2 м над землей.
Tmax - Максимальная температура - максимум температуры воздуха на высоте 2 м над землей.
R - Количество осадков - Количество выпавших осадков за период времени, мм. При наведении курсора мыши на число - период времени, за который выпало указанное количество осадков.
R24 - Количество осадков - Количество выпавших осадков за 24 часа, мм.
S - Снежный покров - Высота снежного покрова, см. При наведении курсора мыши на число - состояние снежного покрова и степень покрытия местности в баллах.